This is the latest recevied weather packets stored in our database for station/object KJ7BRE-1. If no packets are shown the sender has not sent any weather packets the latest 10 day(s).
| Time | Temp. | Humidity | Pressure | Rain* | Wind** | Luminosity | Snow |
|---|---|---|---|---|---|---|---|
| 1778198215 | 22.22° C | 31% | 1010.5 hPa | 0 mm | - | - | - |
| 1778197914 | 22.22° C | 34% | 1010.5 hPa | 0 mm | - | - | - |
| 1778197613 | 21.67° C | 30% | 1010.5 hPa | 0 mm | - | - | - |
| 1778197311 | 21.67° C | 30% | 1010.8 hPa | 0 mm | - | - | - |
| 1778197010 | 22.78° C | 29% | 1010.5 hPa | 0 mm | - | - | - |
| 1778196709 | 22.78° C | 27% | 1010.8 hPa | 0 mm | - | - | - |
| 1778196407 | 22.22° C | 27% | 1010.8 hPa | 0 mm | - | - | - |
| 1778196106 | 21.67° C | 31% | 1010.8 hPa | 0 mm | - | - | - |
| 1778195805 | 21.67° C | 30% | 1011.2 hPa | 0 mm | - | - | - |
| 1778195504 | 21.67° C | 30% | 1011.2 hPa | 0 mm | - | - | - |
| 1778194902 | 22.22° C | 33% | 1011.2 hPa | 0 mm | - | - | - |
| 1778194600 | 22.22° C | 34% | 1011.2 hPa | 0 mm | - | - | - |
| 1778194299 | 22.22° C | 34% | 1011.2 hPa | 0 mm | - | - | - |
| 1778193998 | 21.67° C | 33% | 1011.5 hPa | 0 mm | - | - | - |
| 1778193697 | 21.67° C | 33% | 1011.2 hPa | 0 mm | - | - | - |
| 1778193396 | 21.67° C | 35% | 1011.5 hPa | 0 mm | - | - | - |
| 1778192793 | 21.67° C | 37% | 1011.9 hPa | 0 mm | - | - | - |
| 1778192492 | 21.67° C | 36% | 1011.9 hPa | 0 mm | - | - | - |
| 1778192190 | 21.67° C | 40% | 1011.5 hPa | 0 mm | - | - | - |
| 1778191889 | 21.67° C | 37% | 1011.5 hPa | 0 mm | - | - | - |
| 1778191588 | 21.67° C | 38% | 1011.9 hPa | 0 mm | - | - | - |
| 1778191287 | 21.11° C | 41% | 1011.9 hPa | 0 mm | - | - | - |
| 1778190985 | 20.56° C | 42% | 1011.9 hPa | 0 mm | - | - | - |
| 1778190684 | 20.56° C | 40% | 1011.9 hPa | 0 mm | - | - | - |
| 1778190383 | 21.11° C | 41% | 1012.2 hPa | 0 mm | - | - | - |
* Rain latest hour (hover to see other rain measurements)
** Current wind speed in m/s (hover to see current wind gust speed)